CW7410 Weather Reports


Display with metric or nautical units.
time (UTC)temp
F
wind
direction
speed
MPH
gust
MPH
rain 1hr
in
rain 24hr
in
rain mn
in
humidity
%
barometer
mb
20260508091040 46 49 0.0 4.0 0.00 0.00 0.00 67 1014.0
20260508090539 46 137 1.0 4.0 0.00 0.00 0.00 67 1014.1
20260508090052 46 0 0.0 5.0 0.00 0.00 0.00 67 1014.0
20260508085538 46 355 2.0 5.0 0.00 0.00 0.00 66 1014.0
20260508085040 47 360 2.0 5.0 0.00 0.00 0.00 66 1013.9
20260508084549 47 352 1.0 3.0 0.00 0.00 0.00 66 1014.0
20260508084038 47 0 0.0 2.0 0.00 0.00 0.00 66 1014.0
20260508083539 47 0 0.0 4.0 0.00 0.00 0.00 66 1014.1
20260508083050 47 251 0.0 7.0 0.00 0.00 0.00 66 1014.0
20260508082538 47 178 2.0 9.0 0.00 0.00 0.00 65 1014.0
20260508082039 47 167 4.0 9.0 0.00 0.00 0.00 65 1014.1
20260508081548 47 180 0.0 5.0 0.00 0.00 0.00 64 1014.0
20260508081039 47 38 1.0 3.0 0.00 0.00 0.00 64 1013.9
20260508080538 47 38 2.0 4.0 0.00 0.00 0.00 64 1014.0
20260508080054 47 38 2.0 4.0 0.00 0.00 0.00 64 1013.9
20260508075538 47 39 3.0 4.0 0.00 0.00 0.00 64 1014.0
20260508075040 48 54 2.0 4.0 0.00 0.00 0.00 63 1014.0
20260508074550 48 65 2.0 4.0 0.00 0.00 0.00 63 1014.0
20260508074040 48 77 2.0 4.0 0.00 0.00 0.00 63 1013.9
20260508073539 48 61 0.0 3.0 0.00 0.00 0.00 63 1013.9
20260508073049 49 61 1.0 3.0 0.00 0.00 0.00 63 1014.0
20260508072538 49 61 2.0 3.0 0.00 0.00 0.00 63 1013.9
20260508072039 49 60 0.0 2.0 0.00 0.00 0.00 62 1014.0
20260508071552 49 0 0.0 1.0 0.00 0.00 0.00 62 1014.0
20260508071038 50 0 0.0 3.0 0.00 0.00 0.00 62 1014.0
20260508070538 50 0 0.0 3.0 0.00 0.00 0.00 62 1013.9
20260508070053 50 61 2.0 3.0 0.00 0.00 0.00 62 1014.0
20260508065538 50 90 1.0 3.0 0.00 0.00 0.00 61 1013.9
20260508065038 51 119 1.0 3.0 0.00 0.00 0.00 61 1013.9
20260508064555 51 119 1.0 3.0 0.00 0.00 0.00 61 1013.9
20260508064042 51 119 1.0 3.0 0.00 0.00 0.00 61 1013.9
20260508063539 51 119 1.0 5.0 0.00 0.00 0.00 61 1013.8
20260508063102 51 0 1.0 5.0 0.00 0.00 0.00 61 1013.7
20260508062538 52 351 3.0 5.0 0.00 0.00 0.00 61 1013.7
20260508062038 52 348 3.0 5.0 0.00 0.00 0.00 60 1013.7
20260508061553 52 346 3.0 5.0 0.00 0.00 0.00 60 1013.7
20260508061038 52 352 2.0 5.0 0.00 0.00 0.00 60 1013.6
20260508060538 52 344 2.0 6.0 0.00 0.00 0.00 60 1013.6
20260508060049 53 333 3.0 6.0 0.00 0.00 0.00 60 1013.6
20260508055539 53 327 3.0 7.0 0.00 0.00 0.00 59 1013.7
20260508055038 53 300 3.0 7.0 0.00 0.00 0.00 59 1013.6
20260508054547 53 307 3.0 5.0 0.00 0.00 0.00 58 1013.6
20260508054039 53 298 3.0 4.0 0.00 0.00 0.00 58 1013.6
20260508053538 54 286 1.0 3.0 0.00 0.00 0.00 57 1013.6
20260508053102 54 236 0.0 4.0 0.00 0.00 0.00 57 1013.5
20260508052539 54 0 1.0 4.0 0.00 0.00 0.00 56 1013.6
20260508052038 55 360 2.0 4.0 0.00 0.00 0.00 55 1013.5
20260508051548 55 360 2.0 4.0 0.00 0.00 0.00 55 1013.6
20260508051040 55 203 1.0 4.0 0.00 0.00 0.00 55 1013.5
20260508050538 55 30 2.0 5.0 0.00 0.00 0.00 54 1013.5
20260508050052 56 30 2.0 5.0 0.00 0.00 0.00 54 1013.3
20260508045538 56 32 3.0 5.0 0.00 0.00 0.00 54 1013.3
20260508045039 57 37 2.0 4.0 0.00 0.00 0.00 54 1013.2
20260508044545 57 36 2.0 3.0 0.00 0.00 0.00 53 1013.3
20260508044040 58 360 2.0 3.0 0.00 0.00 0.00 52 1013.3
20260508043539 58 360 2.0 4.0 0.00 0.00 0.00 52 1013.3
20260508043058 58 360 2.0 4.0 0.00 0.00 0.00 51 1013.3
20260508042539 58 45 2.0 5.0 0.00 0.00 0.00 51 1013.3
20260508042038 58 360 3.0 5.0 0.00 0.00 0.00 51 1013.3
20260508041550 58 360 3.0 5.0 0.00 0.00 0.00 51 1013.3
20260508041039 57 360 3.0 6.0 0.00 0.00 0.00 52 1013.2
20260508040538 57 53 3.0 6.0 0.00 0.00 0.00 53 1013.1
20260508040055 57 59 4.0 6.0 0.00 0.00 0.00 53 1013.1
20260508035538 58 360 3.0 5.0 0.00 0.00 0.00 54 1013.1
20260508035038 58 360 2.0 3.0 0.00 0.00 0.00 53 1013.1
20260508034547 59 360 1.0 3.0 0.00 0.00 0.00 52 1013.0
20260508034038 59 360 1.0 3.0 0.00 0.00 0.00 51 1013.1
20260508033538 60 360 1.0 3.0 0.00 0.00 0.00 51 1013.0
20260508033048 60 360 1.0 3.0 0.00 0.00 0.00 51 1013.0
20260508032539 61 360 1.0 3.0 0.00 0.00 0.00 49 1012.9
20260508032042 61 360 0.0 2.0 0.00 0.00 0.00 47 1012.9
20260508031551 62 0 0.0 2.0 0.00 0.00 0.00 46 1012.8
20260508031038 63 140 0.0 2.0 0.00 0.00 0.00 48 1012.8
20260508030538 63 0 0.0 0.0 0.00 0.00 0.00 45 1012.7
20260508030053 64 0 0.0 0.0 0.00 0.00 0.00 43 1012.7
20260508025538 64 0 0.0 2.0 0.00 0.00 0.00 44 1012.7
20260508025040 65 0 0.0 2.0 0.00 0.00 0.00 44 1012.7
20260508024553 66 0 0.0 2.0 0.00 0.00 0.00 44 1012.7
20260508024038 67 0 0.0 2.0 0.00 0.00 0.00 43 1012.6
20260508023538 68 0 0.0 2.0 0.00 0.00 0.00 40 1012.6
20260508023051 69 0 0.0 3.0 0.00 0.00 0.00 41 1012.6
20260508022538 69 140 1.0 3.0 0.00 0.00 0.00 41 1012.5
20260508022038 70 148 1.0 3.0 0.00 0.00 0.00 40 1012.5
20260508021555 71 0 0.0 0.0 0.00 0.00 0.00 38 1012.5
20260508021037 72 0 0.0 0.0 0.00 0.00 0.00 36 1012.5
20260508020538 73 0 0.0 0.0 0.00 0.00 0.00 37 1012.4
20260508020057 73 0 0.0 0.0 0.00 0.00 0.00 37 1012.4
20260508015538 74 0 0.0 3.0 0.00 0.00 0.00 38 1012.5
20260508015038 74 0 0.0 4.0 0.00 0.00 0.00 38 1012.4
20260508014553 75 181 1.0 4.0 0.00 0.00 0.00 35 1012.4
20260508014038 75 186 2.0 4.0 0.00 0.00 0.00 33 1012.4
20260508013538 75 194 1.0 9.0 0.00 0.00 0.00 32 1012.4
20260508013057 75 177 1.0 9.0 0.00 0.00 0.00 30 1012.4
20260508012538 76 283 4.0 8.0 0.00 0.00 0.00 29 1012.4
20260508012038 76 0 0.0 4.0 0.00 0.00 0.00 30 1012.4
20260508011549 76 301 1.0 5.0 0.00 0.00 0.00 30 1012.5
20260508011037 76 0 1.0 5.0 0.00 0.00 0.00 29 1012.5
20260508010538 77 241 1.0 6.0 0.00 0.00 0.00 30 1012.6
20260508010059 77 188 3.0 6.0 0.00 0.00 0.00 29 1012.6
20260508005541 77 211 3.0 8.0 0.00 0.00 0.00 29 1012.6
20260508005041 77 238 2.0 8.0 0.00 0.00 0.00 28 1012.7
20260508004554 77 227 3.0 8.0 0.00 0.00 0.00 29 1012.6
20260508004042 77 194 2.0 8.0 0.00 0.00 0.00 29 1012.7
20260508003538 77 197 2.0 8.0 0.00 0.00 0.00 29 1012.7
20260508003055 77 234 4.0 8.0 0.00 0.00 0.00 29 1012.6
20260508002539 76 0 2.0 6.0 0.00 0.00 0.00 29 1012.7
20260508002039 76 176 2.0 5.0 0.00 0.00 0.00 30 1012.7
20260508001612 76 63 0.0 4.0 0.00 0.00 0.00 30 1012.7
20260508001042 76 61 0.0 5.0 0.00 0.00 0.00 31 1012.8
20260508000543 76 88 1.0 6.0 0.00 0.00 0.00 29 1012.9
20260508000051 77 89 2.0 7.0 0.00 0.00 0.00 30 1012.8
20260507235539 77 188 3.0 7.0 0.00 0.00 0.00 29 1013.0
20260507235039 76 0 1.0 7.0 0.00 0.00 0.00 29 1013.1
20260507234551 76 173 2.0 7.0 0.00 0.00 0.00 29 1013.1
20260507234100 76 198 0.0 7.0 0.00 0.00 0.00 30 1013.1
20260507233540 75 93 1.0 5.0 0.00 0.00 0.00 31 1013.1
20260507233054 75 165 0.0 6.0 0.00 0.00 0.00 31 1013.2
20260507232538 75 195 0.0 9.0 0.00 0.00 0.00 31 1013.2
20260507232039 75 198 2.0 9.0 0.00 0.00 0.00 32 1013.2
20260507231556 75 146 4.0 8.0 0.00 0.00 0.00 32 1013.3
20260507231039 75 86 1.0 8.0 0.00 0.00 0.00 32 1013.4
20260507230540 75 0 2.0 8.0 0.00 0.00 0.00 30 1013.4
20260507230055 74 160 3.0 8.0 0.00 0.00 0.00 30 1013.5
20260507225542 74 47 3.0 7.0 0.00 0.00 0.00 32 1013.5
20260507225039 74 75 1.0 4.0 0.00 0.00 0.00 32 1013.6
20260507224557 74 0 0.0 4.0 0.00 0.00 0.00 30 1013.8
20260507224039 74 0 0.0 5.0 0.00 0.00 0.00 30 1013.8
20260507223539 73 343 1.0 5.0 0.00 0.00 0.00 32 1013.8
20260507223050 73 265 3.0 5.0 0.00 0.00 0.00 31 1013.9
20260507222539 72 0 0.0 3.0 0.00 0.00 0.00 30 1014.0
20260507222042 72 83 0.0 3.0 0.00 0.00 0.00 31 1014.1
20260507221545 72 315 0.0 5.0 0.00 0.00 0.00 31 1014.1
20260507221039 73 0 0.0 6.0 0.00 0.00 0.00 31 1014.2
20260507220539 73 0 3.0 6.0 0.00 0.00 0.00 30 1014.3
20260507220052 73 234 2.0 10.0 0.00 0.00 0.00 30 1014.4
20260507215540 73 229 4.0 10.0 0.00 0.00 0.00 31 1014.4
20260507215041 73 260 3.0 11.0 0.00 0.00 0.00 30 1014.5
20260507214556 73 259 4.0 12.0 0.00 0.00 0.00 29 1014.6
20260507214039 73 292 4.0 12.0 0.00 0.00 0.00 30 1014.6
20260507213539 73 200 5.0 12.0 0.00 0.00 0.00 30 1014.7
20260507213053 73 252 3.0 11.0 0.00 0.00 0.00 29 1014.7
20260507212539 74 267 7.0 11.0 0.00 0.00 0.00 28 1014.8
20260507212040 74 288 8.0 13.0 0.00 0.00 0.00 28 1014.9
20260507211549 74 242 4.0 13.0 0.00 0.00 0.00 29 1014.9
20260507211036 74 267 8.0 13.0 0.00 0.00 0.00 29 1015.0
20260507210541 74 238 6.0 15.0 0.00 0.00 0.00 29 1015.1
20260507210051 74 265 5.0 17.0 0.00 0.00 0.00 29 1015.1
20260507205538 74 241 8.0 17.0 0.00 0.00 0.00 28 1015.1
20260507205041 74 219 11.0 17.0 0.00 0.00 0.00 28 1015.2
20260507204555 74 284 4.0 12.0 0.00 0.00 0.00 29 1015.2
20260507204039 74 265 6.0 15.0 0.00 0.00 0.00 29 1015.3
20260507203538 74 248 7.0 15.0 0.00 0.00 0.00 28 1015.4
20260507203053 73 274 7.0 13.0 0.00 0.00 0.00 29 1015.4
20260507202539 73 260 7.0 16.0 0.00 0.00 0.00 28 1015.5
20260507202042 73 256 5.0 16.0 0.00 0.00 0.00 28 1015.5
20260507201556 73 251 9.0 16.0 0.00 0.00 0.00 28 1015.5
20260507201038 73 248 9.0 16.0 0.00 0.00 0.00 28 1015.5
20260507200538 73 240 9.0 16.0 0.00 0.00 0.00 28 1015.5
20260507200051 73 246 7.0 13.0 0.00 0.00 0.00 29 1015.5
20260507195537 73 208 8.0 12.0 0.00 0.00 0.00 29 1015.5
20260507195038 73 242 3.0 8.0 0.00 0.00 0.00 28 1015.6
20260507194552 73 251 2.0 10.0 0.00 0.00 0.00 28 1015.6
20260507194038 73 191 5.0 11.0 0.00 0.00 0.00 29 1015.7
20260507193538 73 187 6.0 13.0 0.00 0.00 0.00 28 1015.8
20260507193053 73 206 5.0 14.0 0.00 0.00 0.00 28 1015.9
20260507192538 73 222 4.0 14.0 0.00 0.00 0.00 29 1016.0
20260507192038 73 211 5.0 12.0 0.00 0.00 0.00 29 1016.0
20260507191557 73 215 3.0 12.0 0.00 0.00 0.00 28 1016.1
20260507191039 73 207 3.0 14.0 0.00 0.00 0.00 28 1016.1
20260507190538 73 198 7.0 16.0 0.00 0.00 0.00 28 1016.2
20260507190053 73 179 8.0 16.0 0.00 0.00 0.00 28 1016.2
20260507185538 73 150 1.0 12.0 0.00 0.00 0.00 28 1016.3
20260507185040 73 191 5.0 14.0 0.00 0.00 0.00 30 1016.3
20260507184552 72 134 6.0 14.0 0.00 0.00 0.00 28 1016.3
20260507184037 72 190 6.0 14.0 0.00 0.00 0.00 28 1016.4
20260507183537 72 163 6.0 15.0 0.00 0.00 0.00 31 1016.4
20260507183054 71 218 7.0 16.0 0.00 0.00 0.00 29 1016.4
20260507182539 71 175 8.0 16.0 0.00 0.00 0.00 29 1016.5
20260507182039 71 153 6.0 17.0 0.00 0.00 0.00 29 1016.4
20260507181602 71 178 6.0 17.0 0.00 0.00 0.00 29 1016.5
20260507181038 71 178 6.0 16.0 0.00 0.00 0.00 30 1016.6
20260507180539 70 171 7.0 16.0 0.00 0.00 0.00 30 1016.7
20260507180053 70 167 9.0 16.0 0.00 0.00 0.00 30 1016.7
20260507175539 70 140 8.0 16.0 0.00 0.00 0.00 31 1016.7
20260507175039 69 138 7.0 16.0 0.00 0.00 0.00 33 1016.7
20260507174554 69 154 8.0 16.0 0.00 0.00 0.00 31 1016.9
20260507174040 69 142 8.0 17.0 0.00 0.00 0.00 33 1016.9
20260507173541 68 186 9.0 17.0 0.00 0.00 0.00 32 1016.9
20260507173053 68 360 9.0 16.0 0.00 0.00 0.00 32 1017.0
20260507172539 67 176 9.0 18.0 0.00 0.00 0.00 32 1017.0
20260507172038 67 144 9.0 18.0 0.00 0.00 0.00 34 1017.0
20260507171555 67 163 13.0 19.0 0.00 0.00 0.00 33 1017.1
20260507171039 67 150 11.0 19.0 0.00 0.00 0.00 34 1017.1
20260507170539 67 190 10.0 16.0 0.00 0.00 0.00 35 1017.1
20260507170054 66 151 9.0 16.0 0.00 0.00 0.00 35 1017.1
20260507165538 66 173 7.0 17.0 0.00 0.00 0.00 38 1017.2
20260507165038 66 93 9.0 19.0 0.00 0.00 0.00 36 1017.3
20260507164553 66 160 9.0 19.0 0.00 0.00 0.00 37 1017.4
20260507164045 65 165 10.0 19.0 0.00 0.00 0.00 37 1017.4
20260507163539 65 138 10.0 18.0 0.00 0.00 0.00 38 1017.4
20260507163044 64 143 10.0 18.0 0.00 0.00 0.00 37 1017.4
20260507162538 63 134 9.0 18.0 0.00 0.00 0.00 37 1017.5
20260507162039 63 115 11.0 18.0 0.00 0.00 0.00 36 1017.5
20260507161553 62 117 8.0 17.0 0.00 0.00 0.00 39 1017.5
20260507161041 61 123 8.0 17.0 0.00 0.00 0.00 40 1017.6
20260507160539 61 136 8.0 18.0 0.00 0.00 0.00 41 1017.5
20260507160053 60 120 7.0 19.0 0.00 0.00 0.00 40 1017.6
20260507155538 60 125 10.0 19.0 0.00 0.00 0.00 39 1017.6
20260507155039 60 144 10.0 14.0 0.00 0.00 0.00 40 1017.6
20260507154550 59 134 6.0 13.0 0.00 0.00 0.00 43 1017.7
20260507154039 59 153 6.0 13.0 0.00 0.00 0.00 42 1017.6
20260507153541 59 134 5.0 12.0 0.00 0.00 0.00 44 1017.8
20260507153058 59 113 4.0 12.0 0.00 0.00 0.00 44 1017.8
20260507152539 58 161 8.0 17.0 0.00 0.00 0.00 44 1017.7
20260507152039 58 178 8.0 17.0 0.00 0.00 0.00 44 1017.7
20260507151547 57 148 9.0 17.0 0.00 0.00 0.00 43 1017.7
20260507151040 57 117 8.0 17.0 0.00 0.00 0.00 43 1017.7
20260507150539 56 142 8.0 17.0 0.00 0.00 0.00 46 1017.7
20260507150050 56 138 9.0 15.0 0.00 0.00 0.00 46 1017.6
20260507145539 55 155 6.0 13.0 0.00 0.00 0.00 49 1017.7
20260507145038 54 148 8.0 13.0 0.00 0.00 0.00 50 1017.7
20260507144553 54 155 6.0 12.0 0.00 0.00 0.00 51 1017.7
20260507144039 53 360 4.0 8.0 0.00 0.00 0.00 53 1017.7
20260507143538 53 360 4.0 8.0 0.00 0.00 0.00 54 1017.7
20260507143048 52 360 3.0 10.0 0.00 0.00 0.00 55 1017.6
20260507142538 52 360 3.0 10.0 0.00 0.00 0.00 55 1017.6
20260507142039 51 360 5.0 10.0 0.00 0.00 0.00 56 1017.6
20260507141553 51 141 5.0 9.0 0.00 0.00 0.00 58 1017.5
20260507141038 50 122 4.0 9.0 0.00 0.00 0.00 59 1017.5
20260507140539 50 165 3.0 8.0 0.00 0.00 0.00 60 1017.6
20260507140052 50 360 3.0 8.0 0.00 0.00 0.00 61 1017.6
20260507135541 49 360 2.0 6.0 0.00 0.00 0.00 60 1017.5
20260507135039 49 360 3.0 6.0 0.00 0.00 0.00 60 1017.4
20260507134552 49 360 3.0 8.0 0.00 0.00 0.00 60 1017.5
20260507134038 49 360 2.0 8.0 0.00 0.00 0.00 61 1017.4
20260507133539 48 360 3.0 6.0 0.00 0.00 0.00 61 1017.3
20260507133045 48 360 2.0 6.0 0.00 0.00 0.00 62 1017.3
20260507132538 48 360 3.0 8.0 0.00 0.00 0.00 62 1017.2
20260507132043 48 360 3.0 9.0 0.00 0.00 0.00 62 1017.2
20260507131601 47 360 4.0 9.0 0.00 0.00 0.00 62 1017.1
20260507131038 47 360 5.0 9.0 0.00 0.00 0.00 63 1017.0
20260507130540 47 360 4.0 8.0 0.00 0.00 0.00 63 1017.0
20260507130107 46 360 2.0 9.0 0.00 0.00 0.00 63 1017.0
20260507125545 46 360 4.0 9.0 0.00 0.00 0.00 64 1017.0
20260507125037 46 360 4.0 9.0 0.00 0.00 0.00 64 1017.1
20260507124552 46 360 5.0 10.0 0.00 0.00 0.00 64 1017.2
20260507124039 45 360 5.0 10.0 0.00 0.00 0.00 65 1017.1
20260507123538 45 360 5.0 11.0 0.00 0.00 0.00 65 1017.1
20260507123049 45 360 5.0 11.0 0.00 0.00 0.00 65 1017.2
20260507122538 45 360 6.0 11.0 0.00 0.00 0.00 66 1017.1
20260507122038 45 360 6.0 9.0 0.00 0.00 0.00 66 1017.2
20260507121604 44 360 5.0 9.0 0.00 0.00 0.00 66 1017.2
20260507121039 44 360 4.0 6.0 0.00 0.00 0.00 66 1017.3
20260507120537 44 360 2.0 5.0 0.00 0.00 0.00 66 1017.3
20260507120059 43 94 1.0 4.0 0.00 0.00 0.00 66 1017.4
20260507115537 43 360 2.0 5.0 0.00 0.00 0.00 66 1017.4
20260507115037 43 106 2.0 8.0 0.00 0.00 0.00 66 1017.3
20260507114601 43 115 3.0 8.0 0.00 0.00 0.00 66 1017.3
20260507114038 43 360 4.0 8.0 0.00 0.00 0.00 66 1017.2
20260507113538 43 360 4.0 8.0 0.00 0.00 0.00 66 1017.3
20260507113048 42 360 4.0 8.0 0.00 0.00 0.00 66 1017.2
20260507112540 42 360 3.0 6.0 0.00 0.00 0.00 65 1017.3
20260507112038 42 360 3.0 5.0 0.00 0.00 0.00 65 1017.2
20260507111550 42 360 2.0 3.0 0.00 0.00 0.00 65 1017.3
20260507111039 42 360 1.0 3.0 0.00 0.00 0.00 65 1017.4
20260507110538 42 360 2.0 4.0 0.00 0.00 0.00 65 1017.3
20260507110050 42 360 2.0 4.0 0.00 0.00 0.00 65 1017.4
20260507105537 42 360 2.0 4.0 0.00 0.00 0.00 65 1017.3
20260507105041 42 360 2.0 5.0 0.00 0.00 0.00 65 1017.5
20260507104548 42 360 2.0 5.0 0.00 0.00 0.00 64 1017.5
20260507104038 42 360 3.0 5.0 0.00 0.00 0.00 64 1017.5
20260507103542 42 360 2.0 4.0 0.00 0.00 0.00 64 1017.5
20260507103047 42 360 2.0 3.0 0.00 0.00 0.00 64 1017.5
20260507102538 42 360 1.0 3.0 0.00 0.00 0.00 63 1017.6
20260507102038 43 0 0.0 2.0 0.00 0.00 0.00 63 1017.5
20260507101552 43 360 0.0 2.0 0.00 0.00 0.00 63 1017.5
20260507101037 43 0 0.0 2.0 0.00 0.00 0.00 63 1017.5
20260507100542 43 0 0.0 2.0 0.00 0.00 0.00 63 1017.5
20260507100049 43 0 0.0 2.0 0.00 0.00 0.00 62 1017.5
20260507095535 44 0 0.0 0.0 0.00 0.00 0.00 62 1017.6
20260507095041 44 0 0.0 2.0 0.00 0.00 0.00 62 1017.5
20260507094549 44 0 0.0 2.0 0.00 0.00 0.00 62 1017.5
20260507094038 44 360 1.0 2.0 0.00 0.00 0.00 62 1017.5
20260507093541 45 0 0.0 1.0 0.00 0.00 0.00 62 1017.6
20260507093056 45 0 0.0 2.0 0.00 0.00 0.00 62 1017.6
20260507092539 45 0 0.0 2.0 0.00 0.00 0.00 61 1017.6
20260507092039 45 0 1.0 2.0 0.00 0.00 0.00 61 1017.7
20260507091551 45 360 1.0 2.0 0.00 0.00 0.00 61 1017.8